Regional Weather Roundup
Issued by NWS Sioux Falls, SD

Home | Current Version | Previous Version | Graphics & Text | Print | Product List | Glossary On
Versions: 1 2 3 4 5 6 7 8 9 10 11 12 13 14 15 16 17 18 19 20 21 22 23 24 25 26 27 28 29 30 31 32 33 34 35 36 37 38 39 40 41 42 43 44 45 46 47 48 49 50
000
ASUS43 KFSD 030010
RWRFSD

WEATHER ROUNDUP FOR SE SOUTH DAKOTA/SW MINNESOTA/NW IOWA
NATIONAL WEATHER SERVICE SIOUX FALLS SD
700 PM CDT TUE SEP 02 2014

NOTE: "FAIR" INDICATES FEW OR NO CLOUDS BELOW 12,000 FEET WITH NO
SIGNIFICANT WEATHER AND OR OBSTRUCTIONS TO VISIBILITY.


SDZ038>040-050-052>070-030100-
SOUTHEAST SOUTH DAKOTA

CITY           SKY/WX    TMP DP  RH WIND       PRES   REMARKS
CHAMBERLAIN    MOSUNNY   76  53  44 S7        29.82F
6HR MIN TEMP:  76; 6HR MAX TEMP:  80;

HURON          SUNNY     75  53  46 S10       29.82F
6HR MIN TEMP:  75; 6HR MAX TEMP:  80;

MADISON        FAIR      70  55  60 S9        29.89F
MITCHELL       SUNNY     76  55  48 S9        29.85F
6HR MIN TEMP:  75; 6HR MAX TEMP:  79;

SIOUX FALLS    MOSUNNY   73  55  53 S12       29.89F
6HR MIN TEMP:  72; 6HR MAX TEMP:  76;

WINNER         FAIR      79  56  45 S10       29.82F
YANKTON        SUNNY     75  61  60 SE7       29.88F
$$

MNZ071-072-080-081-089-090-097-098-030100-
SOUTHWEST MINNESOTA

CITY           SKY/WX    TMP DP  RH WIND       PRES   REMARKS
FAIRMONT       CLEAR     73  55  53 SW7       29.91F
JACKSON        CLEAR     72  54  53 SW6       29.92F
LUVERNE        CLEAR     73  57  56 SW8       29.91F
MARSHALL       CLEAR     75  54  46 SW13      29.86F
6HR MIN TEMP:  75; 6HR MAX TEMP:  79;

MONTEVIDEO     PTCLDY    75  57  53 W6        29.86S
PIPESTONE      CLEAR     72  55  56 SW8       29.91S
REDWOOD FALLS  CLEAR     75  57  53 SW12      29.87F
TRACY          CLEAR     74  56  53 SW9       29.89S
WINDOM         CLEAR     73  57  56 SW7       29.91F
WORTHINGTON    CLEAR     72  57  60 SW8       29.93F
$$

IAZ001>003-012>014-020>022-031-032-NEZ013-014-SDZ071-030100-
NORTHWEST IOWA

CITY           SKY/WX    TMP DP  RH WIND       PRES   REMARKS
CHEROKEE       CLEAR     73  62  68 SW5       29.92F
DENISON        CLEAR     73  61  64 CALM      29.92F
ESTHERVILLE    CLEAR     71  59  65 SW6       29.91F
LE MARS        CLEAR     73  61  64 SW7       29.92F
ORANGE CITY    CLEAR     75  59  57 SW3       29.92F
SHELDON        CLEAR     72  61  68 SW6       29.91F
SIOUX CITY     CLEAR     76  62  62 S3        29.91F
6HR MIN TEMP:  74; 6HR MAX TEMP:  79;

SPENCER        CLEAR     73  61  65 SW7       29.92F
6HR MIN TEMP:  73; 6HR MAX TEMP:  77;

STORM LAKE     CLEAR     72  64  78 SW5       29.94F
$$

ABBREVIATIONS USED IN REMARKS
   TC - TEMPERATURE IN CELSIUS
  WCI - WIND CHILL INDEX
   HX - HEAT INDEX
  VSB - VISIBILITY



USA.gov is the U.S. government's official web portal to all federal, state and local government web resources and services.